Погода в Виньковцах

Украина / Хмельницкая область     49°01′58″N   27°14′00″E
темп.,
°C
ветер,
м/с
пор.,
м/с
влажн.,
%
обл.,
%
осадки,
мм/ч
давл.,
гПа
погр.,
м
18 мая, вт
вт1800:00+12ююв118761 0.1 100310
03:00+11вюв12904 0.1 100210
06:00+10в2290100 0.0 100112
09:00+15юв2383100 0.4 1001246
12:00+17зсз3269100 4.4 1000640
15:00+16ссз6879100 7.6 999563
18:00+16ссз4781100 2.4 999473
21:00+13сз61190100 5.4 1000403
19 мая, ср
ср1900:00+12зсз91695100 7.3 1001708
03:00+12сз101695100 8.5 1002851
06:00+11сз101794100 0.1 1003922
09:00+11зсз91592100 0.4 10051162
12:00+12сз81289100 0.8 1008901
15:00+15сз9117085 1.1 10081289
18:00+14ссз5879100 1.1 1009992
21:00+11с229399 2.5 101027
20 мая, чт
чт2000:00+9сз229521 0.0 101022
03:00+8зсз22964 0.0 101034
06:00+7з2396100 0.0 101044
09:00+11с2491100 0.0 1010226
12:00+13с2281100 0.4 1010539
15:00+15всв2372100 2.0 1009549
18:00+14ссв3481100 2.1 1009266
21:00+12св3592100 3.4 1010118
21 мая, пт
пт2100:00+11ссв3699100 6.2 1010252
03:00+11всв4897100 11.9 1011444
06:00+10св61097100 8.5 1012485
09:00+10ссв71295100 15.9 1014650
12:00+10ссв61295100 5.2 1016750
15:00+11св3894100 9.8 1017575
18:00+11ссв3592100 1.6 1017427
21:00+10с1293100 1.6 101826
22 мая, сб
сб2200:00+10с3494100 0.1 101894
03:00+9ссз33935 0.1 101859
06:00+8ссв33935 0.0 101853
09:00+13ссв22747 0.0 1018336
12:00+17ссв33620 0.0 10171176
15:00+19всв225588 0.1 10161764
18:00+17вюв237498 0.0 1016242
21:00+13вюв22835 0.1 101511